Date String (YYYY-MM-DD hh:mm:ss) UTC,Instrument flags,absolute air pressure of the measurement (hPa),sample flow rate (lpm),inlet stack bypass flow (lpm),air temperature of the measurement (°C),ambient temperature measured by the external sensor (°C),aerosol sample conditioner tube jacket temperature (°C),OPC LED temperature (°C),internal box temperature (°C),relative humidity of the measurement (%),span deviation,mass concentration of particles derived from Lorenz-Mie calculation of OPC scattering (μg/m³),mass concentration of particles derived from Lorenz-Mie calculation of OPC scattering (μg/m³),mass concentration of particles derived from Lorenz-Mie calculation of OPC scattering (μg/m³)
DateTimeUTC,F1_M11,P_M11,Q1_M11,Q2_M11,T1_M11,T2_M11,T3_M11,T4_M11,T5_M11,U1_M11,ZSPAN_M11,X0_M11,X2_M11,X1_M11
2024-03-22 18:00:00,SystemResetWarning,0830.5,5.00,000.00,020.9,020.3,000.0,029.2,022.7,18.1,0000.0,0011.86,0003.95,0003.19
2024-03-22 18:01:00,SystemResetWarning,0830.5,5.00,000.00,020.9,020.3,000.0,029.2,022.7,18.2,0000.0,0010.91,0003.96,0003.22
2024-03-22 18:02:00,SystemResetWarning,0830.6,4.99,000.00,020.9,020.3,000.0,029.2,022.7,18.3,0000.0,0011.03,0004.03,0003.24
2024-03-22 18:03:00,SystemResetWarning,0830.6,5.00,000.00,020.9,020.3,000.0,029.2,022.7,18.4,0000.0,0011.83,0004.04,0003.24
2024-03-22 18:04:00,SystemResetWarning,0830.7,4.99,000.00,020.9,020.3,000.0,029.2,022.7,18.3,0000.0,0012.23,0004.05,0003.22
2024-03-22 18:05:00,SystemResetWarning,0830.4,4.99,000.00,020.9,020.3,000.0,029.3,022.7,18.0,0000.0,0012.06,0004.03,0003.21
2024-03-22 18:06:00,SystemResetWarning,0830.4,5.00,000.00,020.9,020.4,000.0,029.3,022.7,18.0,0000.0,0013.70,0004.02,0003.23
2024-03-22 18:07:00,SystemResetWarning,0830.7,5.00,000.00,020.9,020.4,000.0,029.3,022.7,18.1,0000.0,0013.07,0004.03,0003.24
2024-03-22 18:08:00,SystemResetWarning,0830.4,5.01,000.00,021.0,020.4,000.0,029.3,022.7,17.8,0000.0,0013.82,0004.07,0003.25
2024-03-22 18:09:00,SystemResetWarning,0830.4,5.00,000.00,021.0,020.4,000.0,029.3,022.8,17.9,0000.0,0015.68,0004.22,0003.26
2024-03-22 18:10:00,SystemResetWarning,0830.4,5.00,000.00,021.0,020.4,000.0,029.3,022.8,18.1,0000.0,0015.98,0004.23,0003.26
2024-03-22 18:11:00,SystemResetWarning,0830.3,5.00,000.00,021.0,020.4,000.0,029.3,022.8,17.8,0000.0,0016.41,0004.25,0003.27
2024-03-22 18:12:00,SystemResetWarning,0830.3,5.00,000.00,021.0,020.5,000.0,029.3,022.8,17.9,0000.0,0016.55,0004.25,0003.26
2024-03-22 18:13:00,SystemResetWarning,0830.3,5.00,000.00,021.0,020.5,000.0,029.3,022.8,17.8,0000.0,0016.98,0004.24,0003.27
2024-03-22 18:14:00,SystemResetWarning,0830.3,5.00,000.00,021.0,020.5,000.0,029.4,022.8,17.6,0000.0,0017.21,0004.24,0003.27
2024-03-22 18:15:00,SystemResetWarning,0830.3,5.00,000.00,021.0,020.5,000.0,029.4,022.8,17.7,0000.0,0017.38,0004.31,0003.29
2024-03-22 18:16:00,SystemResetWarning,0830.2,5.00,000.00,021.1,020.5,000.0,029.4,022.8,17.4,0000.0,0017.86,0004.35,0003.30
2024-03-22 18:17:00,SystemResetWarning,0830.2,5.00,000.00,021.1,020.5,000.0,029.4,022.8,17.6,0000.0,0016.05,0004.38,0003.29
2024-03-22 18:18:00,SystemResetWarning,0830.2,4.99,000.00,021.1,020.5,000.0,029.4,022.9,17.6,0000.0,0015.47,0004.35,0003.28
2024-03-22 18:19:00,SystemResetWarning,0830.3,5.00,000.00,021.1,020.6,000.0,029.4,022.9,17.8,0000.0,0014.27,0004.29,0003.28
2024-03-22 18:20:00,SystemResetWarning,0830.3,5.01,000.00,021.1,020.6,000.0,029.4,022.9,17.7,0000.0,0013.15,0004.17,0003.27
2024-03-22 18:21:00,SystemResetWarning,0830.2,5.00,000.00,021.1,020.6,000.0,029.4,022.9,18.1,0000.0,0013.56,0004.14,0003.26
2024-03-22 18:22:00,SystemResetWarning,0830.2,5.01,000.00,021.1,020.6,000.0,029.4,022.9,18.2,0000.0,0014.04,0004.14,0003.26
2024-03-22 18:23:00,SystemResetWarning,0830.2,5.00,000.00,021.2,020.7,000.0,029.5,023.0,17.8,0000.0,0014.16,0004.13,0003.26
2024-03-22 18:24:00,SystemResetWarning,0830.2,5.00,000.00,021.2,020.7,000.0,029.5,023.0,17.4,0000.0,0013.69,0004.14,0003.25
2024-03-22 18:25:00,SystemResetWarning,0830.2,4.99,000.00,021.2,020.7,000.0,029.5,023.0,17.8,0000.0,0012.79,0004.08,0003.26
2024-03-22 18:26:00,SystemResetWarning,0830.1,4.99,000.00,021.2,020.7,000.0,029.5,023.0,17.4,0000.0,0012.33,0003.97,0003.23
2024-03-22 18:27:00,SystemResetWarning,0830.2,5.00,000.00,021.2,020.7,000.0,029.5,023.0,17.7,0000.0,0011.69,0003.92,0003.21
2024-03-22 18:28:00,SystemResetWarning,0830.2,5.01,000.00,021.2,020.7,000.0,029.5,023.0,17.4,0000.0,0011.79,0003.89,0003.19
2024-03-22 18:29:00,SystemResetWarning,0830.2,5.01,000.00,021.2,020.7,000.0,029.5,023.0,17.1,0000.0,0011.72,0003.87,0003.18
2024-03-22 18:30:00,SystemResetWarning,0830.1,5.01,000.00,021.3,020.7,000.0,029.6,023.0,17.1,0000.0,0011.81,0003.85,0003.16
2024-03-22 18:31:00,SystemResetWarning,0830.1,5.00,000.00,021.3,020.7,000.0,029.6,023.0,17.1,0000.0,0011.29,0003.85,0003.16
2024-03-22 18:32:00,SystemResetWarning,0830.1,4.99,000.00,021.3,020.7,000.0,029.6,023.1,17.7,0000.0,0010.79,0003.82,0003.14
2024-03-22 18:33:00,SystemResetWarning,0830.1,5.00,000.00,021.3,020.7,000.0,029.6,023.1,17.5,0000.0,0010.19,0003.78,0003.12
2024-03-22 18:34:00,SystemResetWarning,0830.1,5.00,000.00,021.3,020.7,000.0,029.6,023.1,17.3,0000.0,0010.32,0003.77,0003.11
2024-03-22 18:35:00,SystemResetWarning,0830.1,5.00,000.00,021.3,020.8,000.0,029.6,023.1,17.9,0000.0,0010.30,0003.74,0003.08
2024-03-22 18:36:00,SystemResetWarning,0830.1,5.01,000.00,021.3,020.8,000.0,029.6,023.1,17.4,0000.0,0010.18,0003.73,0003.03
2024-03-22 18:37:00,SystemResetWarning,0830.0,5.01,000.00,021.3,020.8,000.0,029.6,023.1,17.4,0000.0,0009.73,0003.78,0003.04
2024-03-22 18:38:00,SystemResetWarning,0830.0,4.99,000.00,021.3,020.8,000.0,029.7,023.1,17.4,0000.0,0009.90,0003.81,0003.06
2024-03-22 18:39:00,SystemResetWarning,0830.0,4.99,000.00,021.4,020.8,000.0,029.7,023.1,17.0,0000.0,0009.70,0003.83,0003.05
2024-03-22 18:40:00,SystemResetWarning,0830.0,4.99,000.00,021.4,020.8,000.0,029.7,023.2,17.0,0000.0,0009.76,0003.85,0003.06
2024-03-22 18:41:00,SystemResetWarning,0830.0,5.01,000.00,021.4,020.8,000.0,029.7,023.2,17.3,0000.0,0009.61,0003.86,0003.06
2024-03-22 18:42:00,SystemResetWarning,0830.1,5.01,000.00,021.4,020.8,000.0,029.7,023.2,17.2,0000.0,0009.94,0003.83,0003.05
2024-03-22 18:43:00,SystemResetWarning,0830.1,5.01,000.00,021.4,020.9,000.0,029.7,023.2,17.4,0000.0,0009.88,0003.87,0003.06
2024-03-22 18:44:00,SystemResetWarning,0830.0,5.00,000.00,021.4,020.9,000.0,029.7,023.2,17.6,0000.0,0010.81,0003.90,0003.07
2024-03-22 18:45:00,SystemResetWarning,0829.9,5.00,000.00,021.4,020.9,000.0,029.7,023.2,17.1,0000.0,0010.92,0003.90,0003.06
2024-03-22 18:46:00,SystemResetWarning,0829.9,5.00,000.00,021.5,021.0,000.0,029.8,023.2,17.4,0000.0,0011.37,0003.91,0003.08
2024-03-22 18:47:00,SystemResetWarning,0829.8,5.00,000.00,021.5,021.0,000.0,029.8,023.3,16.9,0000.0,0011.94,0003.96,0003.12
2024-03-22 18:48:00,SystemResetWarning,0829.9,4.99,000.00,021.5,021.0,000.0,029.8,023.3,16.9,0000.0,0012.33,0004.00,0003.13
2024-03-22 18:49:00,SystemResetWarning,0829.9,5.01,000.00,021.5,021.0,000.0,029.8,023.3,16.9,0000.0,0012.56,0004.02,0003.15
2024-03-22 18:50:00,SystemResetWarning,0829.9,4.99,000.00,021.5,021.0,000.0,029.8,023.3,16.8,0000.0,0012.94,0004.06,0003.17
2024-03-22 18:51:00,SystemResetWarning,0829.9,5.00,000.00,021.5,021.0,000.0,029.8,023.3,17.3,0000.0,0013.38,0004.12,0003.19
2024-03-22 18:52:00,SystemResetWarning,0829.9,5.00,000.00,021.5,021.0,000.0,029.8,023.3,17.4,0000.0,0013.52,0004.17,0003.22
2024-03-22 18:53:00,SystemResetWarning,0829.8,5.00,000.00,021.6,021.1,000.0,029.9,023.4,16.7,0000.0,0012.76,0004.21,0003.25
2024-03-22 18:54:00,SystemResetWarning,0829.8,5.00,000.00,021.6,021.1,000.0,029.9,023.4,16.5,0000.0,0013.13,0004.24,0003.29
2024-03-22 18:55:00,SystemResetWarning,0829.8,5.00,000.00,021.6,021.1,000.0,029.9,023.4,16.6,0000.0,0012.18,0004.27,0003.33
2024-03-22 18:56:00,SystemResetWarning,0829.7,5.00,000.00,021.6,021.1,000.0,029.9,023.4,16.5,0000.0,0011.83,0004.32,0003.38
2024-03-22 18:57:00,SystemResetWarning,0829.7,5.00,000.00,021.6,021.1,000.0,029.9,023.4,16.8,0000.0,0012.13,0004.39,0003.41
2024-03-22 18:58:00,SystemResetWarning,0829.7,5.00,000.00,021.6,021.1,000.0,029.9,023.4,16.7,0000.0,0011.64,0004.38,0003.42
2024-03-22 18:59:00,SystemResetWarning,0829.7,4.99,000.00,021.6,021.1,000.0,029.9,023.4,16.9,0000.0,0011.18,0004.38,0003.43
